Regional Weather Roundup
Issued by NWS

Home | Current Version | Previous Version | Graphics & Text | Print | Product List | Glossary On
Versions: 1 2 3 4 5 6 7 8 9 10 11 12 13 14 15 16 17 18 19 20 21 22 23 24 25 26 27 28 29 30 31 32 33 34 35 36 37 38 39 40 41 42 43 44 45 46 47 48 49 50
431
ASUS44 KJAN 182210
RWRMS

MISSISSIPPI HOURLY WEATHER ROUNDUP
NATIONAL WEATHER SERVICE JACKSON MS
500 PM CDT SAT APR 18 2015

NOTE: "FAIR: INDICATES FEW OR NO CLOUDS BELOW 12,000 FEET WITH NO
SIGNIFICANT WEATHER AND/OR OBSTRUCTIONS TO VISIBILITY.

MSZ001>002-007>008-010>013-018>021-025>028-034>036-182300-
NORTHWEST MISSISSIPPI

CITY           SKY/WX    TMP DP  RH WIND       PRES   REMARKS
CLARKSDALE     PTSUNNY   68  64  88 E10       29.87F
CLEVELAND      DRIZZLE   66  66  99 E6        29.84F
GREENWOOD      CLOUDY    67  63  87 E5        29.86F
GREENVILLE     CLOUDY    68  65  90 E8        29.83F
OXFORD         CLOUDY    64  61  88 SE6       29.91F
TUNICA         CLOUDY    68  61  77 E5        29.88F
$$

MSZ003>006-009-014>017-022>024-029>033-037>039-182300-
NORTHEAST MISSISSIPPI

CITY           SKY/WX    TMP DP  RH WIND       PRES   REMARKS
COLUMBUS AFB   CLOUDY    70  63  78 SE5       29.89F
CORINTH        CLOUDY    75  61  60 S7        29.87S
GOLDN TRIANGLE CLOUDY    68  61  77 SE5       29.89S
STARKVILLE     CLOUDY    68  63  83 E3        29.89S
TUPELO         CLOUDY    69  62  78 CALM      29.89S
$$

MSZ040-058-182300-
CENTRAL MISSISSIPPI

CITY           SKY/WX    TMP DP  RH WIND       PRES   REMARKS
JACKSON INTL   CLOUDY    71  65  81 E5        29.85F
JACKSON HAWKNS CLOUDY    71  65  81 E8        29.85F
MERIDIAN KEY   CLOUDY    69  64  84 E3        29.89R
MERIDIAN NAS   CLOUDY    70  64  81 S3        29.90R
RAYMOND        CLOUDY    72  66  83 VRB5      29.83F
VICKSBURG      CLOUDY    70  67  90 E5        29.83F
$$

MSZ059>079-182300-
SOUTH MISSISSIPPI

CITY           SKY/WX    TMP DP  RH WIND       PRES   REMARKS
BROOKHAVEN       N/A    N/A N/A N/A N5        29.84F
HATTIESBURG    CLOUDY    78  68  71 SE7       29.84F
MCCOMB         CLOUDY    75  69  81 S9        29.83F
NATCHEZ        CLOUDY    72  66  83 CALM      29.82F
PINE BELT      CLOUDY    73  66  78 E5        29.86F
$$

MSZ080>082-182300-
COASTAL MISSISSIPPI

CITY           SKY/WX    TMP DP  RH WIND       PRES   REMARKS
BAY ST LOUIS   PTSUNNY   75  66  73 MISG      29.86F
BILOXI         CLOUDY    75  73  94 S8        29.86S
PASCAGOULA     CLOUDY    75  69  81 S5        29.88R
GULFPORT       CLOUDY    75  70  84 S6        29.86S
$$



USA.gov is the U.S. government's official web portal to all federal, state and local government web resources and services.